Weather History for Port Angeles, WA

Change the Weather History Date:

Friday, January 17, 2014

  Actual Average Record
Temperature  
Mean Temperature 41 °F -  
Max Temperature 43 °F 46 °F 56 °F (1971)
Min Temperature 39 °F 35 °F 21 °F (1950)
Degree Days  
Heating Degree Days 24    
Moisture  
Dew Point 39 °F    
Average Humidity 92    
Maximum Humidity 97    
Minimum Humidity 85    
Precipitation  
Precipitation 0.00 in - - ()
Sea Level Pressure  
Sea Level Pressure 30.25 in    
Wind  
Wind Speed 8 mph (ESE)    
Max Wind Speed 10 mph    
Max Gust Speed -    
Visibility 7 miles    
Events      
Averages and records for this station are not official NWS values.
T = Trace of Precipitation, MM = Missing Value Source: NWS Daily Summary

Daily Weather History Graph

Daily Weather History Graph

Search for Another Location

Airport:

Trip Planner

Search our weather history database for the weather conditions in past years. The results will help you decide how hot, cold, wet, or windy it might be!

Date:

Astronomy

Jan. 17, 2014 Rise Set
Actual Time 7:57 AM PST 4:51 PM PST
Civil Twilight 7:22 AM PST 5:25 PM PST
Nautical Twilight 6:44 AM PST 6:04 PM PST
Astronomical Twilight 6:07 AM PST 6:41 PM PST
Moon 6:54 PM PST (1/17) 8:18 AM PST (1/17)
Length of Visible Light 10h 03m
Length of Day
8h 53m
Full, 98% of the Moon is Illuminated
Jan 17
Full
Jan 23
Last Quarter
Jan 30
New
Feb 6
First Quarter
Feb 14
Full

Hourly Weather History & Observations

Time (PST) Temp. Windchill Dew Point Humidity Pressure Visibility Wind Dir Wind Speed Gust Speed Precip Events Conditions
12:53 AM 41.0 °F 35.8 °F 39.0 °F 93% 30.37 in 9.0 mi SE 8.1 mph - N/A   Overcast
1:53 AM 41.0 °F 36.4 °F 39.0 °F 93% 30.36 in 8.0 mi SE 6.9 mph - N/A   Overcast
2:53 AM 41.0 °F 35.8 °F 39.0 °F 93% 30.34 in 5.0 mi SE 8.1 mph - N/A   Overcast
3:53 AM 41.0 °F 35.8 °F 39.0 °F 93% 30.35 in 6.0 mi SE 8.1 mph - N/A   Overcast
4:53 AM 41.0 °F 36.4 °F 39.0 °F 93% 30.35 in 10.0 mi SE 6.9 mph - N/A   Overcast
5:53 AM 41.0 °F 35.8 °F 39.0 °F 93% 30.33 in 10.0 mi ESE 8.1 mph - N/A   Overcast
6:53 AM 41.0 °F 35.8 °F 39.0 °F 93% 30.32 in 10.0 mi SE 8.1 mph - N/A   Overcast
7:53 AM 39.9 °F 35.8 °F 37.9 °F 93% 30.31 in 10.0 mi SE 5.8 mph - N/A   Overcast
8:53 AM 41.0 °F 35.8 °F 37.9 °F 89% 30.32 in 10.0 mi SE 8.1 mph - N/A   Overcast
9:21 AM 42.1 °F 37.1 °F 39.0 °F 89% 30.32 in 10.0 mi ESE 8.1 mph - N/A   Overcast
9:53 AM 42.1 °F 36.1 °F 39.0 °F 89% 30.33 in 10.0 mi SE 10.4 mph - N/A   Overcast
10:53 AM 43.0 °F 37.2 °F 39.0 °F 86% 30.31 in 10.0 mi ESE 10.4 mph - N/A   Overcast
11:53 AM 43.0 °F 37.7 °F 39.0 °F 86% 30.30 in 10.0 mi ESE 9.2 mph - N/A   Overcast
12:53 PM 43.0 °F 37.7 °F 39.0 °F 86% 30.27 in 10.0 mi East 9.2 mph - N/A   Overcast
1:53 PM 43.0 °F 37.2 °F 39.0 °F 86% 30.26 in 10.0 mi East 10.4 mph - N/A   Overcast
2:53 PM 43.0 °F 38.8 °F 39.0 °F 86% 30.24 in 10.0 mi East 6.9 mph - N/A   Overcast
3:53 PM 42.1 °F 37.1 °F 37.9 °F 85% 30.24 in 10.0 mi East 8.1 mph - N/A   Overcast
4:53 PM 42.1 °F 39.2 °F 39.0 °F 89% 30.23 in 10.0 mi East 4.6 mph - N/A   Overcast
5:53 PM 42.1 °F 37.7 °F 39.0 °F 89% 30.22 in 10.0 mi ESE 6.9 mph - N/A   Overcast
6:53 PM 41.0 °F 36.4 °F 39.0 °F 93% 30.21 in 10.0 mi East 6.9 mph - N/A   Overcast
7:24 PM 41.0 °F 37.1 °F 39.0 °F 93% 30.20 in 10.0 mi ESE 5.8 mph - N/A   Overcast
7:53 PM 41.0 °F 37.1 °F 39.0 °F 93% 30.20 in 10.0 mi East 5.8 mph - N/A   Overcast
8:53 PM 39.9 °F 33.9 °F 37.9 °F 93% 30.19 in 2.0 mi ESE 9.2 mph - N/A   Overcast
9:00 PM 39.9 °F 34.5 °F 39.0 °F 97% 30.19 in 1.5 mi ESE 8.1 mph - N/A   Overcast
9:05 PM 39.9 °F 35.8 °F 39.0 °F 97% 30.18 in 3.0 mi ESE 5.8 mph - N/A   Overcast
9:31 PM 39.9 °F 34.5 °F 39.0 °F 97% 30.18 in 1.8 mi ESE 8.1 mph - N/A   Overcast
9:44 PM 39.9 °F 35.1 °F 37.9 °F 93% 30.18 in 3.0 mi SE 6.9 mph - N/A   Overcast
9:53 PM 39.0 °F 34.0 °F 37.9 °F 96% 30.19 in 3.0 mi SE 6.9 mph - N/A   Overcast
9:57 PM 39.0 °F 34.0 °F 37.9 °F 96% 30.18 in 2.5 mi SE 6.9 mph - N/A   Overcast
10:20 PM 39.0 °F 34.0 °F 37.9 °F 96% 30.17 in 1.5 mi ESE 6.9 mph - N/A   Overcast
10:53 PM 39.0 °F 33.4 °F 37.9 °F 96% 30.18 in 1.0 mi SE 8.1 mph - N/A   Mist
11:04 PM 39.0 °F 34.0 °F 37.9 °F 96% 30.17 in 0.8 mi SE 6.9 mph - N/A   Mist
11:22 PM 39.0 °F 34.8 °F 37.9 °F 96% 30.18 in 1.5 mi SE 5.8 mph - N/A   Overcast
11:31 PM 39.0 °F 35.7 °F 37.9 °F 96% 30.18 in 2.5 mi SE 4.6 mph - N/A   Overcast
11:39 PM 39.0 °F 35.7 °F 37.9 °F 96% 30.19 in 4.0 mi South 4.6 mph - N/A   Overcast
11:53 PM 39.0 °F 35.7 °F 37.9 °F 96% 30.19 in 5.0 mi SE 4.6 mph - N/A   Overcast